Total_Precipitation_Accumulation
0.01 0.03 0.04 0.05 0.67 1.83 2.99 1.83 2.02 1.82 2.16 1.33 0.71 1.52 2.37 1.29 1.40 1.47 1.82 1.35 1.49 0.56 0.83 0.30 0.15 0.16 1.27 0.58 0.45 0.19 0.14 0.30 0.23 1.31 0.67 0.43 0.17 0.19 0.20 0.40 0.37 0.28 0.44 0.57 0.78 0.63 0.83 0.63 0.54 0.51 0.51 0.38 0.35 0.29 0.39 0.24 0.13 0.15 0.15 0.09 0.08 0.07 0.05 0.02 0.02 0.03 0.08 0.13 0.15 0.29 0.32 0.25 0.37 0.34 0.32 0.21 0.22 0.27 0.19 0.16 0.22 0.18 0.15 0.17 0.18 0.27 0.28 0.17 0.20 0.28 0.30 0.31 0.35 0.30 0.32 0.33 0.31
0.02 0.07 0.08 0.19 0.86 2.95 2.94 1.23 1.32 1.24 1.25 1.51 0.80 0.90 1.37 1.28 1.34 0.97 0.78 1.26 1.35 1.09 0.26 0.52 0.18 0.12 0.47 0.72 0.17 0.07 0.09 0.15 0.13 0.10 0.19 0.19 0.21 0.24 0.25 0.50 0.36 0.31 0.24 0.44 0.48 0.45 0.64 0.74 0.43 0.50 0.46 0.31 0.26 0.31 0.34 0.20 0.15 0.11 0.11 0.08 0.11 0.06 0.05 0.04 0.11 0.21 0.15 0.14 0.28 0.19 0.33 0.28 0.35 0.29 0.30 0.33 0.21 0.29 0.23 0.19 0.27 0.24 0.32 0.30 0.18 0.24 0.25 0.25 0.21 0.24 0.28 0.30 0.27 0.39 0.30 0.40 0.31
0.09 0.22 0.17 0.50 1.12 1.97 2.09 1.65 1.59 1.32 1.93 1.36 1.00 1.31 1.09 1.42 1.36 1.03 0.79 1.50 0.60 0.42 0.25 0.10 0.20 0.18 0.28 0.34 0.31 0.39 0.28 0.19 0.10 0.06 0.21 0.31 0.34 0.67 0.44 0.48 0.43 0.17 0.22 0.29 0.31 0.39 0.49 0.55 0.45 0.33 0.28 0.32 0.26 0.24 0.36 0.21 0.17 0.15 0.14 0.08 0.07 0.09 0.06 0.13 0.20 0.21 0.14 0.29 0.20 0.23 0.27 0.25 0.21 0.28 0.49 0.42 0.43 0.24 0.22 0.30 0.21 0.27 0.31 0.25 0.21 0.20 0.31 0.28 0.30 0.29 0.38 0.42 0.40 0.43 0.29 0.36 0.25
0.16 0.27 0.91 0.45 2.45 0.99 2.21 1.82 1.26 1.74 1.52 1.15 0.99 1.26 1.49 1.07 1.27 1.24 1.18 0.95 0.37 0.09 0.10 0.27 0.68 0.52 0.63 0.49 0.24 0.15 0.15 0.23 0.08 0.01 0.34 0.23 0.16 0.19 0.19 0.41 0.46 0.25 0.16 0.29 0.22 0.30 0.27 0.39 0.16 0.25 0.28 0.22 0.21 0.24 0.19 0.18 0.26 0.17 0.17 0.12 0.11 0.16 0.11 0.15 0.14 0.10 0.14 0.14 0.18 0.17 0.22 0.25 0.30 0.36 0.32 0.39 0.42 0.29 0.35 0.32 0.24 0.23 0.27 0.27 0.34 0.37 0.36 0.35 0.26 0.34 0.32 0.30 0.43 0.31 0.34 0.44 0.40
0.51 0.58 0.47 1.29 1.86 1.56 1.18 1.15 1.31 1.60 1.31 1.18 1.57 1.24 1.11 1.75 1.52 1.10 1.63 0.79 0.24 0.19 0.10 0.45 0.41 0.30 0.65 0.76 0.20 0.77 0.25 0.09 0.06 0.02 0.09 0.14 0.05 0.10 0.13 0.18 0.34 0.15 0.15 0.19 0.36 0.24 0.41 0.30 0.16 0.22 0.24 0.32 0.24 0.18 0.18 0.19 0.36 0.13 0.17 0.18 0.09 0.13 0.11 0.12 0.08 0.12 0.15 0.14 0.21 0.08 0.23 0.19 0.15 0.24 0.35 0.28 0.23 0.32 0.34 0.27 0.23 0.21 0.33 0.24 0.25 0.23 0.26 0.32 0.30 0.24 0.26 0.22 0.24 0.35 0.25 0.32 0.35
0.63 0.68 0.53 1.01 2.58 2.52 0.98 1.25 1.26 0.86 1.08 1.03 1.36 1.27 0.87 1.01 0.57 0.94 0.61 0.36 0.24 0.20 0.17 0.32 0.35 0.22 0.29 0.28 0.23 0.21 0.09 0.33 0.20 0.11 0.06 0.13 0.09 0.06 0.07 0.14 0.15 0.20 0.25 0.18 0.14 0.35 0.41 0.19 0.21 0.35 0.26 0.14 0.16 0.15 0.31 0.27 0.10 0.11 0.18 0.10 0.13 0.12 0.16 0.07 0.11 0.07 0.06 0.16 0.17 0.12 0.09 0.16 0.09 0.17 0.25 0.25 0.13 0.21 0.20 0.22 0.13 0.14 0.21 0.14 0.23 0.30 0.21 0.24 0.12 0.13 0.15 0.20 0.30 0.16 0.39 0.30 0.26
0.79 0.45 0.97 0.79 0.73 1.46 1.31 0.71 0.94 0.85 1.33 1.11 1.28 1.41 1.11 0.64 0.65 0.35 0.77 0.42 0.20 0.45 0.42 0.38 0.07 0.15 0.28 0.17 0.08 0.15 0.08 0.05 0.11 0.06 0.05 0.08 0.04 0.06 0.09 0.09 0.11 0.15 0.20 0.16 0.14 0.10 0.20 0.14 0.19 0.24 0.16 0.13 0.17 0.10 0.17 0.16 0.19 0.18 0.08 0.10 0.06 0.05 0.07 0.08 0.16 0.10 0.09 0.13 0.12 0.09 0.06 0.14 0.18 0.21 0.21 0.14 0.13 0.16 0.15 0.15 0.15 0.23 0.19 0.20 0.21 0.24 0.22 0.12 0.20 0.11 0.10 0.19 0.19 0.29 0.29 0.31 0.50
0.19 0.86 1.46 0.82 1.47 0.84 0.88 0.60 0.76 0.85 1.34 0.93 1.28 0.69 0.91 0.92 1.12 0.66 0.28 0.54 0.28 0.55 0.43 0.36 0.27 0.51 0.61 0.08 0.56 0.13 0.09 0.09 0.05 0.03 0.05 0.05 0.06 0.09 0.07 0.06 0.13 0.15 0.17 0.12 0.12 0.16 0.20 0.18 0.26 0.18 0.11 0.20 0.07 0.06 0.08 0.15 0.10 0.12 0.07 0.07 0.04 0.05 0.05 0.06 0.11 0.10 0.10 0.06 0.10 0.09 0.15 0.20 0.18 0.17 0.22 0.24 0.16 0.23 0.17 0.21 0.27 0.29 0.26 0.12 0.18 0.11 0.15 0.08 0.12 0.14 0.20 0.21 0.17 0.21 0.19 0.30 0.26
0.55 0.58 0.59 0.87 0.93 0.50 0.68 1.11 0.70 0.31 0.71 0.55 0.90 0.93 1.33 1.15 0.65 0.65 0.70 0.67 0.56 0.64 0.34 0.37 0.25 0.29 0.37 0.22 0.18 0.20 0.12 0.05 0.03 0.01 0.03 0.03 0.05 0.06 0.08 0.04 0.06 0.10 0.12 0.12 0.18 0.17 0.24 0.13 0.16 0.10 0.10 0.11 0.08 0.06 0.08 0.12 0.10 0.08 0.07 0.06 0.04 0.04 0.04 0.04 0.09 0.06 0.07 0.08 0.12 0.17 0.15 0.17 0.25 0.25 0.25 0.23 0.18 0.15 0.18 0.14 0.25 0.28 0.31 0.25 0.17 0.23 0.17 0.10 0.11 0.11 0.12 0.07 0.14 0.31 0.31 0.24 0.32
1.05 0.83 2.30 1.08 0.82 0.87 0.45 0.60 0.60 0.99 1.10 1.26 1.31 1.10 1.26 1.02 0.86 1.96 0.61 0.59 0.52 0.50 0.26 0.38 0.12 0.69 0.31 0.21 0.21 0.16 0.14 0.04 0.02 0.03 0.04 0.02 0.04 0.03 0.03 0.04 0.04 0.07 0.11 0.15 0.08 0.10 0.11 0.33 0.12 0.18 0.12 0.08 0.12 0.06 0.19 0.10 0.13 0.09 0.09 0.04 0.02 0.03 0.04 0.07 0.07 0.04 0.07 0.13 0.20 0.22 0.26 0.20 0.19 0.25 0.24 0.20 0.10 0.13 0.15 0.16 0.24 0.27 0.14 0.28 0.28 0.20 0.12 0.09 0.08 0.08 0.14 0.21 0.30 0.41 0.46 0.32 0.23
0.95 0.55 1.01 1.07 0.80 0.69 0.70 0.60 0.70 0.75 1.12 1.35 1.11 1.21 1.84 1.65 0.91 0.55 0.84 0.71 0.59 0.43 0.10 0.12 0.45 0.23 0.20 0.27 0.29 0.15 0.04 0.02 0.01 0.06 0.04 0.04 0.03 0.02 0.03 0.04 0.05 0.05 0.09 0.10 0.05 0.15 0.24 0.22 0.18 0.08 0.15 0.13 0.07 0.11 0.12 0.04 0.05 0.06 0.06 0.04 0.04 0.02 0.07 0.06 0.10 0.07 0.10 0.16 0.16 0.16 0.22 0.15 0.22 0.22 0.14 0.07 0.09 0.13 0.19 0.24 0.12 0.17 0.18 0.14 0.14 0.12 0.16 0.08 0.15 0.16 0.10 0.19 0.23 0.51 0.44 0.40 0.21
1.65 1.30 1.35 1.39 1.30 0.79 0.72 0.73 0.75 0.55 1.62 1.28 1.36 1.62 1.20 1.07 1.42 0.60 0.48 0.57 0.50 0.25 0.15 0.16 0.52 0.24 0.28 0.15 0.30 0.37 0.07 0.04 0.02 0.02 0.03 0.03 0.03 0.03 0.02 0.03 0.06 0.05 0.02 0.05 0.11 0.19 0.13 0.22 0.15 0.27 0.10 0.10 0.08 0.10 0.06 0.10 0.03 0.04 0.03 0.04 0.05 0.07 0.04 0.06 0.05 0.08 0.08 0.12 0.14 0.12 0.10 0.12 0.11 0.10 0.09 0.05 0.10 0.07 0.11 0.11 0.18 0.12 0.09 0.21 0.11 0.08 0.23 0.29 0.49 0.32 0.46 0.37 0.46 0.40 0.46 0.33 0.28
1.12 1.46 1.59 0.89 0.89 0.92 0.73 0.50 0.87 0.81 1.29 2.05 1.50 1.59 1.39 1.00 0.70 0.97 0.80 0.57 0.20 0.24 0.13 0.31 0.12 0.26 0.53 0.20 0.32 0.19 0.13 0.07 0.03 0.02 0.03 0.02 0.03 0.05 0.02 0.04 0.07 0.05 0.02 0.06 0.09 0.13 0.13 0.20 0.15 0.20 0.20 0.14 0.10 0.06 0.04 0.04 0.03 0.03 0.02 0.04 0.03 0.04 0.03 0.04 0.03 0.04 0.05 0.06 0.08 0.07 0.08 0.09 0.06 0.06 0.05 0.07 0.08 0.07 0.10 0.17 0.21 0.27 0.15 0.16 0.20 0.11 0.19 0.25 0.46 0.50 0.41 0.69 0.65 0.62 0.50 0.38 0.33
0.65 1.22 1.45 0.72 0.35 0.58 0.85 1.05 0.85 1.41 1.43 1.25 1.27 1.11 1.29 1.26 0.90 0.54 0.52 0.31 0.77 1.01 0.11 0.11 0.21 0.45 0.40 0.14 0.77 0.29 0.15 0.05 0.04 0.03 0.03 0.05 0.06 0.04 0.03 0.03 0.03 0.04 0.05 0.06 0.09 0.15 0.12 0.15 0.14 0.10 0.12 0.13 0.16 0.12 0.09 0.04 0.04 0.04 0.03 0.09 0.10 0.03 0.03 0.02 0.03 0.07 0.06 0.04 0.08 0.08 0.07 0.03 0.04 0.03 0.03 0.01 0.05 0.09 0.08 0.12 0.16 0.16 0.12 0.08 0.09 0.15 0.23 0.37 0.27 0.41 0.56 0.76 0.85 0.74 0.66 0.52 0.39
0.78 0.88 0.88 0.74 0.44 0.21 0.19 0.99 0.64 0.90 1.00 1.49 1.40 1.02 1.01 1.20 0.93 1.02 0.87 0.46 0.70 0.78 0.34 0.07 0.30 0.21 0.43 0.09 0.30 0.14 0.11 0.05 0.04 0.02 0.05 0.07 0.06 0.04 0.02 0.04 0.06 0.05 0.07 0.12 0.12 0.13 0.12 0.13 0.11 0.09 0.13 0.15 0.08 0.11 0.08 0.11 0.03 0.04 0.07 0.05 0.03 0.02 0.01 0.04 0.04 0.06 0.04 0.03 0.07 0.05 0.05 0.06 0.02 0.03 0.03 0.05 0.07 0.08 0.07 0.07 0.09 0.06 0.05 0.07 0.06 0.10 0.18 0.38 0.57 0.53 0.46 0.62 0.70 0.77 0.97 0.54 0.51
0.31 0.67 0.83 0.66 1.10 1.02 0.70 0.64 0.29 0.69 1.10 1.55 1.14 1.43 1.28 0.63 0.96 1.09 0.73 1.70 0.27 0.08 0.05 0.22 0.08 0.41 0.17 0.06 0.03 0.06 0.03 0.06 0.04 0.04 0.05 0.10 0.06 0.04 0.07 0.07 0.07 0.08 0.09 0.12 0.11 0.10 0.07 0.12 0.07 0.09 0.09 0.06 0.08 0.05 0.05 0.09 0.08 0.05 0.07 0.07 0.02 0.02 0.02 0.05 0.05 0.05 0.09 0.09 0.08 0.08 0.06 0.09 0.06 0.06 0.04 0.05 0.05 0.05 0.03 0.06 0.03 0.04 0.03 0.03 0.05 0.07 0.14 0.16 0.35 0.35 0.53 0.65 0.67 0.55 0.64 0.78 0.92
0.23 0.48 0.95 0.66 1.18 0.44 0.34 0.30 0.12 0.94 0.64 1.04 0.86 1.40 0.99 0.84 0.68 1.26 1.10 1.06 0.55 0.27 0.52 0.18 0.15 0.05 0.11 0.09 0.06 0.04 0.05 0.02 0.03 0.08 0.07 0.18 0.14 0.19 0.20 0.22 0.14 0.16 0.18 0.14 0.09 0.08 0.06 0.07 0.07 0.10 0.08 0.06 0.06 0.12 0.08 0.09 0.06 0.08 0.09 0.05 0.02 0.02 0.04 0.06 0.08 0.09 0.11 0.10 0.08 0.06 0.09 0.17 0.15 0.21 0.13 0.13 0.06 0.09 0.01 0.03 0.03 0.05 0.04 0.04 0.04 0.11 0.08 0.15 0.16 0.22 0.34 0.24 0.30 0.52 0.58 0.40 0.48
0.37 0.95 0.46 0.80 1.22 0.74 0.67 0.61 0.12 0.18 0.70 0.38 0.77 0.90 0.87 0.47 0.35 1.07 0.74 1.25 1.25 0.67 0.68 0.12 0.22 0.08 0.06 0.03 0.05 0.02 0.02 0.02 0.07 0.08 0.10 0.12 0.11 0.21 0.19 0.17 0.17 0.16 0.13 0.17 0.13 0.11 0.06 0.07 0.09 0.11 0.15 0.09 0.08 0.09 0.10 0.12 0.09 0.11 0.10 0.11 0.09 0.08 0.06 0.04 0.04 0.03 0.15 0.15 0.15 0.09 0.23 0.17 0.31 0.28 0.35 0.30 0.13 0.09 0.11 0.04 0.03 0.05 0.03 0.03 0.07 0.08 0.03 0.09 0.09 0.08 0.12 0.17 0.19 0.18 0.18 0.21 0.22
0.33 0.52 0.43 1.40 0.27 0.95 0.43 0.48 0.21 0.41 0.93 0.46 1.14 0.56 1.00 0.81 0.70 0.60 0.67 0.63 0.67 0.69 0.41 0.31 0.16 0.05 0.05 0.04 0.03 0.02 0.02 0.05 0.05 0.02 0.04 0.04 0.08 0.08 0.07 0.09 0.09 0.12 0.17 0.13 0.13 0.12 0.04 0.05 0.08 0.10 0.07 0.08 0.09 0.08 0.08 0.06 0.08 0.15 0.09 0.04 0.04 0.06 0.06 0.05 0.07 0.06 0.05 0.11 0.15 0.08 0.18 0.21 0.22 0.32 0.30 0.17 0.15 0.06 0.02 0.03 0.05 0.04 0.05 0.04 0.03 0.02 0.04 0.05 0.03 0.08 0.07 0.07 0.20 0.15 0.20 0.16 0.15
0.18 0.33 0.72 1.02 0.68 0.63 0.35 0.19 0.57 0.20 0.27 0.43 0.58 0.84 0.99 1.18 1.07 1.13 1.12 0.47 0.81 0.40 0.25 0.12 0.07 0.07 0.08 0.05 0.02 0.02 0.02 0.03 0.01 0.06 0.02 0.06 0.02 0.01 0.03 0.05 0.05 0.05 0.05 0.06 0.04 0.12 0.05 0.05 0.06 0.10 0.08 0.06 0.08 0.09 0.05 0.15 0.07 0.05 0.06 0.03 0.03 0.03 0.05 0.10 0.05 0.06 0.09 0.10 0.06 0.15 0.21 0.21 0.21 0.18 0.16 0.06 0.12 0.07 0.12 0.04 0.07 0.04 0.03 0.04 0.06 0.10 0.02 0.03 0.01 0.02 0.05 0.13 0.28 0.25 0.23 0.14 0.13
0.12 0.20 0.20 1.03 0.59 0.50 0.48 0.22 0.50 0.20 0.59 0.37 0.62 0.84 0.98 0.86 1.07 0.84 0.58 0.71 0.80 1.09 0.31 0.13 0.05 0.10 0.03 0.02 0.03 0.02 0.02 0.03 0.04 0.05 0.04 0.02 0.03 0.01 0.01 0.01 0.04 0.02 0.04 0.03 0.05 0.06 0.07 0.04 0.06 0.10 0.05 0.08 0.05 0.08 0.03 0.06 0.05 0.05 0.03 0.02 0.02 0.03 0.07 0.05 0.06 0.06 0.03 0.09 0.14 0.33 0.27 0.24 0.11 0.13 0.11 0.11 0.14 0.16 0.21 0.10 0.16 0.27 0.20 0.27 0.06 0.26 0.28 0.15 0.17 0.21 0.25 0.21 0.24 0.19 0.24 0.15 0.05
0.03 0.27 0.11 0.12 0.31 0.16 0.37 0.18 0.07 0.15 0.13 0.49 0.64 0.90 1.40 0.87 0.50 0.48 0.37 0.87 0.66 0.78 0.60 0.44 0.21 0.02 0.02 0.01 0.02 0.01 0.01 0.02 0.05 0.03 0.02 0.01 0.01 0.03 0.02 0.01 0.04 0.03 0.05 0.05 0.03 0.03 0.05 0.03 0.03 0.08 0.04 0.05 0.05 0.05 0.07 0.06 0.03 0.02 0.05 0.05 0.03 0.03 0.06 0.03 0.03 0.03 0.05 0.11 0.50 0.25 0.11 0.19 0.17 0.13 0.06 0.10 0.10 0.15 0.15 0.10 0.13 0.15 0.10 0.21 0.09 0.18 0.17 0.07 0.22 0.19 0.10 0.09 0.14 0.17 0.07 0.07 0.03
0.00 0.00 0.01 0.05 0.07 0.86 0.25 0.10 0.24 0.02 0.22 0.93 0.50 0.72 0.47 0.66 0.84 0.75 0.46 1.30 1.08 0.86 0.44 0.34 0.19 0.04 0.03 0.02 0.02 0.01 0.01 0.03 0.03 0.03 0.01 0.01 0.01 0.01 0.01 0.01 0.01 0.03 0.03 0.02 0.02 0.02 0.03 0.03 0.03 0.04 0.04 0.07 0.05 0.05 0.09 0.06 0.04 0.02 0.04 0.04 0.07 0.06 0.03 0.03 0.02 0.03 0.16 0.21 0.26 0.05 0.13 0.11 0.09 0.08 0.08 0.06 0.12 0.15 0.14 0.12 0.15 0.17 0.12 0.11 0.12 0.23 0.10 0.10 0.16 0.07 0.18 0.13 0.10 0.25 0.20 0.05 0.07
0.00 0.00 0.00 0.08 0.24 0.23 0.15 0.08 0.01 0.02 0.24 0.70 0.74 0.33 0.61 0.55 1.02 0.52 0.77 0.77 1.05 0.69 0.54 0.18 0.20 0.13 0.01 0.02 0.03 0.02 0.01 0.02 0.01 0.03 0.00 0.01 0.00 0.00 0.00 0.01 0.01 0.01 0.02 0.01 0.03 0.03 0.02 0.02 0.02 0.02 0.05 0.05 0.03 0.05 0.04 0.06 0.04 0.04 0.05 0.07 0.05 0.02 0.02 0.02 0.04 0.04 0.10 0.14 0.05 0.03 0.04 0.08 0.06 0.13 0.15 0.04 0.09 0.13 0.08 0.28 0.25 0.14 0.15 0.26 0.15 0.06 0.11 0.21 0.17 0.30 0.12 0.08 0.05 0.10 0.11 0.04 0.06
0.01 0.00 0.00 0.00 0.05 0.21 0.09 0.07 0.02 0.01 0.03 0.21 0.38 0.30 0.18 0.48 1.21 0.45 0.62 0.53 0.37 0.67 0.32 0.23 0.16 0.10 0.01 0.03 0.01 0.02 0.04 0.04 0.02 0.03 0.00 0.00 0.00 0.00 0.01 0.00 0.01 0.01 0.01 0.03 0.02 0.01 0.03 0.02 0.04 0.03 0.03 0.02 0.04 0.05 0.03 0.03 0.04 0.04 0.05 0.04 0.02 0.02 0.02 0.02 0.04 0.03 0.03 0.02 0.07 0.04 0.08 0.07 0.06 0.04 0.08 0.06 0.06 0.15 0.10 0.07 0.10 0.09 0.09 0.06 0.07 0.10 0.03 0.06 0.04 0.16 0.18 0.06 0.12 0.06 0.07 0.05 0.07
0.00 0.00 0.00 0.00 0.00 0.02 0.07 0.04 0.01 0.03 0.15 0.17 0.12 0.35 0.52 0.26 0.48 0.64 0.90 0.66 0.43 0.35 0.30 0.19 0.08 0.06 0.02 0.02 0.01 0.01 0.02 0.02 0.03 0.01 0.00 0.01 0.00 0.01 0.00 0.00 0.00 0.01 0.00 0.01 0.01 0.02 0.02 0.03 0.01 0.02 0.04 0.02 0.03 0.04 0.03 0.05 0.05 0.05 0.04 0.03 0.02 0.06 0.03 0.01 0.02 0.02 0.02 0.02 0.05 0.07 0.03 0.08 0.04 0.12 0.07 0.04 0.05 0.06 0.03 0.06 0.03 0.04 0.08 0.06 0.02 0.20 0.08 0.04 0.08 0.07 0.05 0.13 0.05 0.07 0.10 0.06 0.07
0.00 0.00 0.00 0.02 0.02 0.00 0.00 0.02 0.15 0.04 0.09 0.14 0.18 0.11 0.71 0.56 0.10 0.81 0.39 0.58 0.52 0.47 0.21 0.36 0.26 0.05 0.02 0.00 0.01 0.02 0.01 0.02 0.00 0.00 0.01 0.00 0.00 0.00 0.00 0.00 0.00 0.00 0.00 0.01 0.01 0.01 0.01 0.02 0.02 0.01 0.01 0.01 0.02 0.03 0.02 0.02 0.04 0.04 0.02 0.03 0.03 0.03 0.02 0.03 0.07 0.14 0.05 0.02 0.03 0.12 0.07 0.09 0.05 0.10 0.08 0.07 0.04 0.03 0.07 0.07 0.06 0.06 0.04 0.09 0.05 0.10 0.08 0.03 0.06 0.12 0.16 0.04 0.08 0.06 0.10 0.08 0.06
0.00 0.00 0.00 0.00 0.00 0.00 0.00 0.02 0.03 0.09 0.12 0.04 0.16 0.40 0.28 0.50 0.46 0.66 0.32 0.22 0.21 0.22 0.10 0.14 0.08 0.08 0.03 0.03 0.01 0.00 0.01 0.02 0.00 0.00 0.01 0.00 0.00 0.00 0.00 0.00 0.00 0.00 0.00 0.00 0.01 0.00 0.02 0.01 0.03 0.01 0.01 0.02 0.02 0.01 0.02 0.03 0.02 0.02 0.03 0.03 0.03 0.02 0.03 0.11 0.12 0.11 0.02 0.02 0.03 0.06 0.07 0.09 0.16 0.16 0.10 0.03 0.07 0.03 0.05 0.06 0.05 0.05 0.05 0.03 0.06 0.04 0.10 0.10 0.11 0.10 0.08 0.13 0.10 0.09 0.09 0.06 0.05
0.00 0.00 0.00 0.00 0.00 0.00 0.00 0.00 0.01 0.03 0.09 0.01 0.05 0.43 0.56 0.25 0.43 0.08 0.12 0.30 0.26 0.09 0.07 0.07 0.06 0.01 0.00 0.00 0.01 0.00 0.00 0.03 0.01 0.00 0.00 0.00 0.00 0.00 0.00 0.00 0.00 0.00 0.00 0.00 0.00 0.00 0.00 0.02 0.01 0.01 0.01 0.02 0.02 0.01 0.02 0.01 0.01 0.01 0.03 0.01 0.01 0.06 0.10 0.04 0.02 0.02 0.04 0.05 0.07 0.02 0.09 0.11 0.10 0.04 0.07 0.04 0.02 0.04 0.08 0.10 0.09 0.04 0.04 0.06 0.04 0.05 0.09 0.10 0.08 0.11 0.19 0.20 0.17 0.12 0.04 0.05 0.06
0.00 0.00 0.00 0.00 0.00 0.00 0.00 0.00 0.00 0.02 0.04 0.02 0.07 0.47 0.26 0.16 0.09 0.12 0.15 0.32 0.10 0.09 0.07 0.11 0.06 0.04 0.03 0.00 0.00 0.00 0.01 0.01 0.00 0.00 0.00 0.00 0.00 0.00 0.00 0.00 0.00 0.00 0.00 0.00 0.00 0.00 0.00 0.01 0.00 0.02 0.01 0.01 0.01 0.01 0.01 0.01 0.01 0.01 0.01 0.03 0.07 0.09 0.12 0.12 0.07 0.07 0.11 0.05 0.04 0.02 0.04 0.05 0.04 0.03 0.06 0.08 0.03 0.05 0.05 0.08 0.13 0.12 0.04 0.07 0.07 0.05 0.09 0.18 0.10 0.23 0.16 0.15 0.15 0.13 0.08 0.06 0.10
0.00 0.00 0.00 0.00 0.00 0.00 0.00 0.00 0.00 0.00 0.01 0.00 0.00 0.31 0.59 0.11 0.15 0.07 0.14 0.06 0.06 0.13 0.07 0.05 0.16 0.04 0.02 0.00 0.00 0.00 0.00 0.00 0.00 0.00 0.00 0.00 0.01 0.00 0.00 0.00 0.00 0.00 0.00 0.00 0.00 0.00 0.00 0.00 0.01 0.01 0.01 0.01 0.02 0.01 0.01 0.01 0.00 0.01 0.01 0.01 0.05 0.15 0.13 0.10 0.12 0.05 0.03 0.03 0.03 0.02 0.03 0.05 0.06 0.07 0.09 0.12 0.06 0.07 0.08 0.11 0.21 0.12 0.17 0.09 0.09 0.09 0.08 0.17 0.08 0.11 0.09 0.19 0.14 0.09 0.11 0.05 0.04
0.00 0.00 0.00 0.00 0.00 0.01 0.00 0.00 0.00 0.00 0.00 0.00 0.01 0.05 0.31 0.05 0.08 0.17 0.10 0.08 0.07 0.08 0.08 0.11 0.16 0.15 0.03 0.01 0.01 0.01 0.01 0.00 0.00 0.00 0.00 0.00 0.00 0.00 0.01 0.00 0.00 0.00 0.00 0.00 0.00 0.00 0.00 0.00 0.00 0.00 0.00 0.00 0.00 0.00 0.01 0.00 0.00 0.00 0.01 0.01 0.06 0.10 0.04 0.12 0.19 0.07 0.04 0.03 0.01 0.01 0.05 0.09 0.13 0.10 0.13 0.17 0.19 0.08 0.07 0.10 0.15 0.16 0.08 0.14 0.13 0.09 0.11 0.19 0.19 0.23 0.14 0.19 0.15 0.17 0.08 0.03 0.05
0.00 0.00 0.01 0.00 0.00 0.00 0.00 0.00 0.00 0.00 0.02 0.00 0.03 0.33 0.17 0.28 0.05 0.09 0.09 0.08 0.06 0.16 0.12 0.05 0.12 0.35 0.13 0.05 0.01 0.01 0.01 0.00 0.01 0.00 0.00 0.00 0.00 0.00 0.00 0.00 0.00 0.00 0.00 0.00 0.00 0.00 0.00 0.00 0.00 0.00 0.00 0.00 0.00 0.00 0.00 0.00 0.00 0.01 0.01 0.00 0.02 0.02 0.12 0.04 0.10 0.03 0.09 0.02 0.08 0.05 0.06 0.08 0.14 0.16 0.11 0.17 0.16 0.16 0.12 0.08 0.18 0.14 0.14 0.13 0.11 0.22 0.09 0.10 0.24 0.21 0.19 0.10 0.08 0.16 0.14 0.04 0.06
0.00 0.00 0.00 0.00 0.00 0.00 0.00 0.00 0.00 0.00 0.00 0.03 0.00 0.02 0.08 0.34 0.05 0.26 0.18 0.05 0.08 0.23 0.12 0.15 0.06 0.26 0.06 0.03 0.02 0.02 0.02 0.00 0.02 0.00 0.00 0.00 0.00 0.00 0.00 0.00 0.00 0.00 0.00 0.00 0.00 0.00 0.00 0.00 0.00 0.00 0.00 0.00 0.00 0.00 0.00 0.00 0.01 0.01 0.02 0.01 0.03 0.02 0.06 0.09 0.03 0.13 0.11 0.07 0.10 0.19 0.13 0.14 0.12 0.16 0.20 0.20 0.28 0.28 0.14 0.16 0.24 0.27 0.18 0.07 0.21 0.19 0.40 0.23 0.21 0.18 0.27 0.15 0.10 0.10 0.13 0.11 0.06
0.00 0.00 0.00 0.00 0.00 0.00 0.00 0.01 0.01 0.00 0.00 0.01 0.05 0.00 0.18 0.10 0.07 0.06 0.23 0.07 0.11 0.25 0.27 0.16 0.08 0.47 0.18 0.01 0.08 0.03 0.02 0.03 0.02 0.01 0.00 0.00 0.00 0.00 0.00 0.00 0.00 0.00 0.00 0.00 0.00 0.00 0.01 0.01 0.00 0.00 0.01 0.00 0.00 0.00 0.00 0.01 0.01 0.03 0.06 0.05 0.03 0.02 0.06 0.07 0.06 0.08 0.08 0.08 0.12 0.10 0.07 0.27 0.19 0.32 0.27 0.38 0.22 0.30 0.20 0.13 0.09 0.16 0.08 0.09 0.18 0.28 0.26 0.23 0.15 0.15 0.25 0.19 0.11 0.13 0.12 0.09 0.11
0.00 0.00 0.00 0.00 0.00 0.00 0.02 0.01 0.00 0.00 0.00 0.00 0.01 0.15 0.11 0.03 0.04 0.08 0.14 0.12 0.09 0.29 0.32 0.26 0.47 0.32 0.36 0.29 0.21 0.04 0.01 0.02 0.01 0.01 0.00 0.00 0.00 0.00 0.00 0.00 0.00 0.00 0.00 0.00 0.00 0.00 0.00 0.00 0.00 0.00 0.00 0.00 0.01 0.01 0.01 0.02 0.01 0.02 0.03 0.02 0.03 0.03 0.02 0.04 0.03 0.04 0.03 0.02 0.13 0.17 0.08 0.16 0.09 0.15 0.16 0.11 0.15 0.18 0.11 0.09 0.14 0.14 0.08 0.11 0.17 0.26 0.19 0.25 0.20 0.28 0.20 0.15 0.20 0.16 0.09 0.09 0.09
0.00 0.00 0.00 0.00 0.00 0.00 0.00 0.01 0.00 0.00 0.00 0.00 0.00 0.03 0.10 0.11 0.05 0.06 0.06 0.12 0.08 0.14 0.29 0.26 0.25 0.38 0.17 0.35 0.13 0.02 0.05 0.03 0.00 0.01 0.01 0.02 0.00 0.00 0.00 0.00 0.00 0.00 0.00 0.00 0.01 0.00 0.00 0.00 0.00 0.00 0.01 0.01 0.02 0.04 0.03 0.02 0.05 0.03 0.03 0.02 0.01 0.01 0.01 0.01 0.01 0.01 0.01 0.07 0.07 0.12 0.04 0.11 0.07 0.07 0.05 0.06 0.05 0.09 0.15 0.22 0.17 0.19 0.16 0.16 0.21 0.23 0.13 0.23 0.27 0.16 0.20 0.13 0.10 0.19 0.26 0.19 0.05
0.00 0.00 0.00 0.00 0.00 0.00 0.00 0.01 0.00 0.00 0.00 0.01 0.01 0.05 0.05 0.07 0.03 0.04 0.03 0.05 0.09 0.10 0.30 0.28 0.20 0.32 0.28 0.07 0.22 0.41 0.08 0.02 0.02 0.02 0.01 0.00 0.00 0.00 0.00 0.00 0.00 0.00 0.00 0.00 0.00 0.00 0.00 0.00 0.00 0.00 0.00 0.01 0.01 0.01 0.02 0.02 0.01 0.01 0.01 0.01 0.01 0.03 0.03 0.02 0.02 0.02 0.01 0.03 0.02 0.02 0.02 0.04 0.04 0.04 0.06 0.07 0.10 0.08 0.08 0.13 0.10 0.24 0.22 0.14 0.12 0.17 0.17 0.18 0.10 0.26 0.18 0.32 0.08 0.17 0.21 0.15 0.09
0.00 0.00 0.00 0.00 0.00 0.00 0.00 0.00 0.00 0.00 0.00 0.00 0.00 0.01 0.02 0.04 0.03 0.01 0.07 0.04 0.06 0.05 0.10 0.27 0.36 0.36 0.28 0.15 0.18 0.17 0.23 0.05 0.02 0.02 0.01 0.01 0.01 0.00 0.00 0.00 0.00 0.00 0.00 0.00 0.00 0.01 0.00 0.00 0.00 0.01 0.01 0.01 0.00 0.01 0.01 0.02 0.01 0.01 0.01 0.02 0.01 0.03 0.02 0.03 0.06 0.07 0.03 0.04 0.02 0.02 0.05 0.03 0.03 0.06 0.07 0.08 0.13 0.19 0.11 0.19 0.14 0.19 0.12 0.06 0.05 0.07 0.09 0.09 0.14 0.12 0.13 0.12 0.13 0.16 0.09 0.10 0.09
0.00 0.00 0.00 0.00 0.00 0.00 0.01 0.00 0.00 0.00 0.01 0.01 0.00 0.01 0.00 0.00 0.01 0.06 0.01 0.04 0.02 0.02 0.05 0.14 0.30 0.88 0.35 0.15 0.28 0.21 0.01 0.25 0.22 0.02 0.01 0.01 0.00 0.00 0.00 0.00 0.00 0.00 0.00 0.00 0.00 0.00 0.01 0.00 0.00 0.00 0.00 0.01 0.01 0.01 0.00 0.00 0.01 0.01 0.00 0.02 0.02 0.03 0.07 0.02 0.04 0.04 0.05 0.03 0.05 0.04 0.05 0.08 0.12 0.15 0.11 0.14 0.17 0.06 0.05 0.08 0.09 0.08 0.05 0.07 0.08 0.06 0.06 0.18 0.09 0.16 0.15 0.20 0.08 0.15 0.18 0.13 0.04
0.00 0.00 0.00 0.00 0.00 0.00 0.00 0.01 0.00 0.00 0.00 0.04 0.21 0.00 0.01 0.00 0.00 0.00 0.02 0.02 0.05 0.03 0.02 0.02 0.01 0.06 0.27 0.19 0.08 0.11 0.28 0.08 0.06 0.01 0.01 0.00 0.00 0.00 0.00 0.00 0.00 0.00 0.00 0.00 0.00 0.00 0.00 0.00 0.00 0.00 0.00 0.00 0.00 0.00 0.01 0.01 0.02 0.03 0.03 0.02 0.02 0.04 0.02 0.03 0.03 0.03 0.03 0.03 0.03 0.04 0.04 0.08 0.11 0.03 0.03 0.02 0.01 0.01 0.02 0.02 0.04 0.08 0.06 0.12 0.09 0.08 0.10 0.16 0.12 0.18 0.08 0.12 0.14 0.16 0.13 0.07 0.06
0.00 0.00 0.00 0.00 0.00 0.00 0.00 0.00 0.00 0.01 0.00 0.00 0.00 0.04 0.01 0.01 0.00 0.00 0.00 0.06 0.03 0.04 0.03 0.02 0.04 0.06 0.04 0.12 0.10 0.05 0.04 0.16 0.10 0.10 0.04 0.03 0.01 0.00 0.00 0.00 0.00 0.00 0.00 0.00 0.00 0.00 0.00 0.00 0.00 0.00 0.00 0.01 0.00 0.00 0.01 0.02 0.03 0.06 0.05 0.06 0.08 0.05 0.10 0.03 0.02 0.01 0.02 0.04 0.02 0.02 0.02 0.02 0.05 0.03 0.01 0.00 0.00 0.01 0.02 0.03 0.02 0.07 0.06 0.08 0.07 0.11 0.11 0.10 0.08 0.10 0.09 0.09 0.10 0.07 0.06 0.05 0.04
0.00 0.00 0.00 0.00 0.00 0.00 0.00 0.00 0.00 0.01 0.02 0.02 0.00 0.05 0.05 0.01 0.01 0.00 0.00 0.01 0.02 0.03 0.01 0.01 0.07 0.07 0.10 0.03 0.08 0.08 0.07 0.13 0.07 0.09 0.07 0.10 0.04 0.01 0.00 0.00 0.00 0.00 0.00 0.00 0.00 0.00 0.00 0.00 0.00 0.00 0.00 0.00 0.00 0.00 0.01 0.01 0.02 0.02 0.03 0.04 0.02 0.02 0.02 0.01 0.00 0.02 0.00 0.00 0.01 0.00 0.00 0.00 0.00 0.00 0.00 0.00 0.00 0.01 0.02 0.03 0.02 0.02 0.04 0.08 0.05 0.12 0.06 0.06 0.07 0.04 0.04 0.04 0.06 0.09 0.03 0.04 0.02
0.00 0.00 0.00 0.00 0.00 0.00 0.00 0.00 0.00 0.01 0.00 0.00 0.02 0.00 0.04 0.05 0.01 0.00 0.00 0.00 0.01 0.07 0.02 0.01 0.01 0.05 0.21 0.11 0.09 0.08 0.09 0.03 0.06 0.02 0.03 0.02 0.02 0.02 0.01 0.00 0.00 0.00 0.00 0.00 0.00 0.00 0.00 0.00 0.00 0.00 0.00 0.00 0.00 0.00 0.01 0.01 0.01 0.01 0.01 0.01 0.01 0.01 0.00 0.01 0.00 0.00 0.00 0.01 0.01 0.00 0.00 0.00 0.01 0.00 0.00 0.00 0.00 0.01 0.01 0.05 0.03 0.02 0.01 0.02 0.06 0.06 0.05 0.04 0.04 0.03 0.03 0.04 0.04 0.05 0.07 0.03 0.03
0.00 0.00 0.00 0.00 0.00 0.00 0.00 0.00 0.00 0.00 0.01 0.05 0.01 0.00 0.02 0.00 0.00 0.00 0.00 0.00 0.01 0.01 0.02 0.01 0.03 0.04 0.09 0.08 0.06 0.04 0.04 0.06 0.06 0.06 0.04 0.01 0.00 0.01 0.03 0.01 0.00 0.00 0.00 0.00 0.00 0.00 0.00 0.00 0.00 0.00 0.00 0.00 0.00 0.00 0.00 0.00 0.00 0.01 0.01 0.01 0.01 0.00 0.01 0.00 0.00 0.00 0.00 0.00 0.00 0.01 0.00 0.00 0.01 0.00 0.00 0.00 0.01 0.01 0.01 0.03 0.03 0.02 0.02 0.03 0.04 0.04 0.06 0.04 0.04 0.05 0.04 0.04 0.04 0.03 0.02 0.04 0.02
0.00 0.00 0.00 0.00 0.00 0.00 0.00 0.00 0.01 0.01 0.01 0.01 0.00 0.00 0.04 0.00 0.01 0.00 0.00 0.00 0.00 0.01 0.01 0.03 0.02 0.12 0.04 0.05 0.07 0.05 0.07 0.08 0.07 0.06 0.03 0.03 0.01 0.02 0.03 0.02 0.02 0.01 0.00 0.00 0.00 0.00 0.00 0.00 0.00 0.00 0.00 0.00 0.00 0.00 0.00 0.00 0.00 0.00 0.00 0.00 0.00 0.01 0.00 0.00 0.00 0.00 0.00 0.00 0.00 0.00 0.00 0.00 0.00 0.01 0.00 0.00 0.00 0.00 0.01 0.01 0.02 0.02 0.02 0.05 0.02 0.02 0.02 0.02 0.03 0.02 0.03 0.03 0.03 0.05 0.03 0.02 0.02
0.00 0.00 0.00 0.00 0.00 0.00 0.00 0.00 0.00 0.01 0.00 0.00 0.00 0.00 0.00 0.02 0.00 0.01 0.00 0.00 0.00 0.00 0.00 0.00 0.02 0.07 0.09 0.04 0.06 0.05 0.09 0.06 0.09 0.06 0.02 0.01 0.01 0.04 0.03 0.02 0.00 0.00 0.01 0.00 0.00 0.00 0.00 0.00 0.00 0.00 0.00 0.00 0.00 0.00 0.00 0.00 0.00 0.00 0.00 0.00 0.00 0.01 0.01 0.00 0.00 0.00 0.00 0.00 0.00 0.00 0.01 0.00 0.00 0.00 0.00 0.00 0.00 0.00 0.01 0.01 0.01 0.01 0.02 0.01 0.01 0.01 0.01 0.02 0.01 0.01 0.01 0.02 0.04 0.02 0.03 0.04 0.02
0.00 0.00 0.00 0.00 0.00 0.00 0.00 0.00 0.00 0.00 0.00 0.00 0.00 0.00 0.01 0.04 0.00 0.00 0.00 0.00 0.00 0.00 0.00 0.00 0.01 0.05 0.01 0.04 0.04 0.04 0.02 0.02 0.08 0.09 0.06 0.02 0.02 0.02 0.00 0.00 0.00 0.00 0.00 0.00 0.00 0.00 0.00 0.00 0.00 0.00 0.00 0.00 0.00 0.00 0.00 0.00 0.00 0.00 0.00 0.00 0.00 0.00 0.00 0.00 0.00 0.00 0.00 0.00 0.00 0.00 0.00 0.00 0.00 0.00 0.00 0.00 0.00 0.00 0.00 0.00 0.00 0.01 0.01 0.01 0.01 0.01 0.01 0.01 0.01 0.01 0.01 0.01 0.01 0.02 0.03 0.02 0.03
0.00 0.00 0.00 0.00 0.00 0.00 0.00 0.00 0.00 0.00 0.00 0.00 0.00 0.00 0.00 0.00 0.00 0.00 0.00 0.00 0.00 0.00 0.00 0.00 0.01 0.01 0.02 0.02 0.02 0.01 0.04 0.08 0.06 0.04 0.07 0.02 0.01 0.01 0.01 0.00 0.00 0.00 0.01 0.00 0.00 0.00 0.00 0.00 0.00 0.00 0.00 0.00 0.00 0.00 0.00 0.00 0.00 0.00 0.00 0.00 0.00 0.00 0.00 0.00 0.00 0.00 0.00 0.00 0.00 0.00 0.00 0.00 0.00 0.00 0.00 0.00 0.00 0.00 0.00 0.00 0.00 0.00 0.01 0.00 0.00 0.01 0.01 0.01 0.01 0.01 0.01 0.01 0.00 0.02 0.03 0.05 0.02
0.00 0.00 0.00 0.00 0.00 0.00 0.00 0.00 0.00 0.00 0.00 0.00 0.00 0.00 0.00 0.00 0.00 0.00 0.00 0.00 0.00 0.00 0.00 0.00 0.00 0.00 0.02 0.01 0.01 0.01 0.01 0.05 0.04 0.02 0.05 0.02 0.01 0.02 0.00 0.01 0.00 0.00 0.01 0.00 0.00 0.00 0.00 0.00 0.00 0.00 0.00 0.00 0.00 0.00 0.00 0.00 0.00 0.00 0.00 0.00 0.00 0.00 0.00 0.00 0.00 0.00 0.00 0.00 0.00 0.00 0.00 0.00 0.00 0.00 0.00 0.00 0.00 0.00 0.00 0.00 0.00 0.00 0.00 0.00 0.00 0.00 0.01 0.01 0.01 0.01 0.01 0.01 0.00 0.00 0.02 0.05 0.05
0.00 0.00 0.00 0.00 0.00 0.00 0.00 0.00 0.00 0.00 0.00 0.00 0.00 0.00 0.00 0.02 0.00 0.00 0.00 0.00 0.00 0.00 0.00 0.00 0.00 0.00 0.00 0.00 0.00 0.00 0.00 0.03 0.05 0.04 0.03 0.05 0.03 0.01 0.01 0.01 0.01 0.01 0.00 0.02 0.00 0.00 0.00 0.00 0.00 0.00 0.00 0.00 0.00 0.00 0.00 0.00 0.00 0.00 0.00 0.00 0.00 0.00 0.00 0.00 0.00 0.00 0.00 0.00 0.00 0.00 0.00 0.00 0.00 0.00 0.00 0.00 0.00 0.00 0.00 0.00 0.00 0.00 0.00 0.00 0.00 0.00 0.01 0.01 0.01 0.01 0.01 0.01 0.00 0.00 0.00 0.01 0.02
0.00 0.00 0.00 0.00 0.00 0.00 0.00 0.00 0.00 0.00 0.00 0.00 0.00 0.00 0.00 0.00 0.00 0.00 0.00 0.00 0.00 0.00 0.00 0.00 0.00 0.00 0.00 0.00 0.01 0.01 0.01 0.01 0.01 0.02 0.03 0.04 0.06 0.06 0.03 0.00 0.00 0.00 0.00 0.00 0.00 0.00 0.00 0.00 0.00 0.00 0.00 0.00 0.00 0.00 0.00 0.00 0.00 0.00 0.00 0.00 0.00 0.00 0.00 0.00 0.00 0.00 0.00 0.00 0.00 0.00 0.00 0.00 0.00 0.00 0.01 0.00 0.00 0.00 0.00 0.00 0.00 0.00 0.00 0.00 0.00 0.00 0.00 0.00 0.01 0.01 0.02 0.01 0.01 0.00 0.00 0.01 0.01
0.00 0.00 0.00 0.00 0.00 0.00 0.00 0.00 0.00 0.00 0.00 0.00 0.00 0.00 0.00 0.00 0.00 0.00 0.00 0.00 0.00 0.00 0.00 0.00 0.00 0.00 0.00 0.00 0.00 0.00 0.02 0.00 0.00 0.00 0.00 0.02 0.03 0.08 0.19 0.04 0.01 0.01 0.00 0.00 0.00 0.00 0.00 0.00 0.00 0.00 0.00 0.00 0.00 0.00 0.00 0.00 0.00 0.00 0.00 0.00 0.00 0.00 0.00 0.00 0.00 0.00 0.00 0.00 0.00 0.00 0.02 0.01 0.00 0.00 0.00 0.00 0.01 0.00 0.00 0.00 0.00 0.00 0.00 0.00 0.00 0.00 0.00 0.00 0.00 0.01 0.01 0.01 0.01 0.01 0.00 0.01 0.01
0.00 0.00 0.00 0.00 0.00 0.00 0.00 0.00 0.00 0.00 0.00 0.00 0.00 0.00 0.00 0.00 0.01 0.00 0.00 0.00 0.00 0.00 0.00 0.00 0.00 0.00 0.00 0.00 0.00 0.00 0.00 0.00 0.01 0.00 0.00 0.00 0.00 0.01 0.05 0.03 0.05 0.01 0.00 0.01 0.00 0.00 0.00 0.00 0.00 0.00 0.00 0.00 0.00 0.00 0.00 0.00 0.00 0.00 0.00 0.00 0.00 0.00 0.00 0.00 0.00 0.00 0.00 0.00 0.00 0.00 0.01 0.00 0.00 0.00 0.00 0.00 0.00 0.00 0.00 0.00 0.00 0.00 0.00 0.00 0.00 0.00 0.00 0.00 0.00 0.00 0.00 0.01 0.00 0.00 0.00 0.01 0.02
0.00 0.00 0.00 0.00 0.00 0.00 0.00 0.00 0.00 0.00 0.00 0.00 0.00 0.00 0.00 0.00 0.00 0.00 0.00 0.00 0.00 0.00 0.00 0.00 0.00 0.00 0.00 0.00 0.00 0.00 0.00 0.01 0.00 0.04 0.02 0.02 0.04 0.02 0.05 0.05 0.08 0.03 0.01 0.01 0.00 0.00 0.00 0.00 0.00 0.00 0.00 0.00 0.00 0.00 0.00 0.00 0.00 0.00 0.00 0.00 0.00 0.00 0.00 0.00 0.00 0.00 0.00 0.00 0.00 0.00 0.00 0.00 0.00 0.00 0.00 0.00 0.00 0.00 0.00 0.00 0.00 0.00 0.00 0.00 0.00 0.00 0.00 0.00 0.00 0.00 0.00 0.01 0.00 0.00 0.00 0.00 0.01
0.00 0.00 0.00 0.00 0.00 0.00 0.00 0.00 0.00 0.00 0.00 0.00 0.00 0.00 0.00 0.00 0.00 0.00 0.00 0.00 0.00 0.00 0.00 0.00 0.00 0.00 0.00 0.00 0.00 0.00 0.00 0.00 0.00 0.01 0.02 0.02 0.01 0.04 0.02 0.04 0.06 0.08 0.07 0.11 0.02 0.03 0.00 0.00 0.00 0.00 0.00 0.00 0.00 0.00 0.00 0.00 0.00 0.00 0.00 0.00 0.00 0.00 0.00 0.00 0.00 0.00 0.00 0.00 0.00 0.00 0.00 0.00 0.00 0.00 0.00 0.00 0.00 0.00 0.00 0.00 0.00 0.00 0.00 0.00 0.00 0.00 0.00 0.00 0.00 0.00 0.00 0.00 0.00 0.00 0.00 0.00 0.00
0.00 0.00 0.00 0.00 0.00 0.00 0.00 0.00 0.00 0.00 0.00 0.00 0.00 0.00 0.00 0.00 0.00 0.00 0.00 0.00 0.00 0.00 0.00 0.00 0.00 0.00 0.00 0.00 0.00 0.00 0.00 0.00 0.00 0.00 0.01 0.03 0.01 0.03 0.04 0.05 0.07 0.13 0.17 0.41 0.11 0.04 0.02 0.03 0.01 0.00 0.00 0.00 0.00 0.00 0.00 0.00 0.00 0.00 0.00 0.00 0.00 0.00 0.00 0.00 0.00 0.00 0.00 0.00 0.00 0.00 0.00 0.00 0.00 0.00 0.00 0.00 0.00 0.00 0.00 0.00 0.01 0.00 0.00 0.00 0.00 0.00 0.00 0.00 0.00 0.01 0.00 0.00 0.00 0.00 0.00 0.00 0.00
0.00 0.00 0.00 0.00 0.00 0.00 0.00 0.00 0.00 0.00 0.00 0.00 0.00 0.00 0.00 0.06 0.00 0.00 0.00 0.00 0.00 0.00 0.00 0.00 0.00 0.00 0.00 0.00 0.00 0.00 0.00 0.00 0.00 0.01 0.01 0.01 0.00 0.02 0.04 0.05 0.01 0.06 0.11 0.20 0.14 0.23 0.25 0.19 0.04 0.00 0.02 0.00 0.00 0.00 0.00 0.00 0.00 0.00 0.00 0.00 0.00 0.00 0.00 0.00 0.00 0.00 0.00 0.00 0.00 0.01 0.00 0.00 0.00 0.00 0.00 0.00 0.00 0.00 0.00 0.00 0.00 0.00 0.01 0.03 0.00 0.00 0.00 0.01 0.01 0.00 0.00 0.00 0.00 0.00 0.00 0.00 0.00